LNE101 SECU-SEGU

Flight info

Callsign LNE101
Flight time N/A
Altitude 18000
Route SECU VUTNI2 VUTNI DCT LOGUS DCT EVRED EVRED2 SEGU
Aircraft A20N/M-SDE2E3FGHIRWXY/LB1

Departure

Time 2026-05-07 22:05
Airport Mariscal Lamar Airport (SECU)

Arrival

Time N/A
Airport José Joaquín de Olmedo International Airport (SEGU)
Time Latitude Longitude Altitude Speed Heading
2026-05-07 21:54 -2.88981 -78.98655 8302 ft 0 kts 324°
2026-05-07 22:00 -2.88987 -78.98651 8304 ft 3 kts 293°
2026-05-07 22:01 -2.88986 -78.98634 8303 ft 2 kts 232°
2026-05-07 22:01 -2.88984 -78.98632 8303 ft 0 kts 232°
2026-05-07 22:03 -2.88986 -78.98634 8303 ft 1 kts 232°
2026-05-07 22:03 -2.89016 -78.98661 8304 ft 14 kts 221°
2026-05-07 22:03 -2.89117 -78.98767 8313 ft 27 kts 235°
2026-05-07 22:04 -2.89261 -78.98957 8328 ft 41 kts 232°
2026-05-07 22:04 -2.89406 -78.99112 8333 ft 27 kts 182°
2026-05-07 22:04 -2.89414 -78.99031 8336 ft 25 kts 55°
2026-05-07 22:04 -2.89188 -78.98743 8310 ft 79 kts 51°
2026-05-07 22:05 -2.88730 -78.98162 8292 ft 132 kts 52°
2026-05-07 22:05 -2.88110 -78.97370 8542 ft 143 kts 53°
2026-05-07 22:05 -2.87584 -78.96611 9360 ft 125 kts 57°
2026-05-07 22:05 -2.87056 -78.95850 9663 ft 149 kts 52°
2026-05-07 22:06 -2.86293 -78.94968 9755 ft 186 kts 50°
2026-05-07 22:06 -2.85410 -78.93972 10291 ft 190 kts 50°
2026-05-07 22:06 -2.84562 -78.93003 11017 ft 180 kts 49°
2026-05-07 22:06 -2.83631 -78.92163 11592 ft 189 kts 36°
2026-05-07 22:07 -2.82362 -78.91548 11856 ft 217 kts 16°
2026-05-07 22:07 -2.80823 -78.91244 12395 ft 231 kts 11°
2026-05-07 22:07 -2.79204 -78.91024 13119 ft 236 kts
2026-05-07 22:07 -2.77566 -78.90809 13803 ft 243 kts 11°
2026-05-07 22:08 -2.75878 -78.90581 14537 ft 244 kts 11°
2026-05-07 22:08 -2.74203 -78.90349 15206 ft 247 kts 11°
2026-05-07 22:08 -2.72475 -78.90102 15864 ft 251 kts 10°
2026-05-07 22:08 -2.70744 -78.89854 16519 ft 255 kts 11°
2026-05-07 22:09 -2.68971 -78.89598 17159 ft 258 kts 11°
2026-05-07 22:09 -2.67172 -78.89338 17831 ft 261 kts 11°
2026-05-07 22:09 -2.65377 -78.89079 18426 ft 266 kts 10°
2026-05-07 22:09 -2.63503 -78.88807 18815 ft 278 kts 11°
2026-05-07 22:10 -2.61513 -78.88515 19032 ft 297 kts 11°
2026-05-07 22:10 -2.59424 -78.88212 19202 ft 319 kts 10°
2026-05-07 22:10 -2.57104 -78.88058 19228 ft 348 kts
2026-05-07 22:10 -2.54615 -78.88493 19182 ft 377 kts 343°
2026-05-07 22:11 -2.52201 -78.89738 19180 ft 404 kts 324°
2026-05-07 22:11 -2.50192 -78.91817 19177 ft 429 kts 305°
2026-05-07 22:11 -2.48888 -78.94535 19176 ft 450 kts 287°
2026-05-07 22:11 -2.48421 -78.97691 19175 ft 468 kts 270°
2026-05-07 22:12 -2.48869 -79.00941 19145 ft 483 kts 253°
2026-05-07 22:12 -2.50226 -79.04049 19413 ft 482 kts 238°
2026-05-07 22:12 -2.52031 -79.06732 21185 ft 448 kts 231°
2026-05-07 22:12 -2.53959 -79.09001 22944 ft 416 kts 224°
2026-05-07 22:13 -2.56049 -79.10865 24600 ft 383 kts 215°
2026-05-07 22:13 -2.58219 -79.12204 26013 ft 348 kts 203°
2026-05-07 22:13 -2.60378 -79.12925 27349 ft 313 kts 186°
2026-05-07 22:13 -2.62403 -79.12933 28604 ft 277 kts 165°
2026-05-07 22:14 -2.64015 -79.12130 29571 ft 249 kts 134°
2026-05-07 22:14 -2.64862 -79.10646 29547 ft 261 kts 100°
2026-05-07 22:14 -2.64675 -79.08719 28787 ft 301 kts 64°
2026-05-07 22:14 -2.63265 -79.07126 28718 ft 310 kts 26°
2026-05-07 22:15 -2.61271 -79.06684 29333 ft 292 kts 350°
2026-05-07 22:15 -2.59410 -79.07408 29442 ft 289 kts 315°
2026-05-07 22:15 -2.58273 -79.09059 29044 ft 300 kts 279°
2026-05-07 22:15 -2.58338 -79.11108 28860 ft 298 kts 241°
2026-05-07 22:16 -2.59607 -79.12609 29179 ft 274 kts 201°
2026-05-07 22:16 -2.61371 -79.12946 29491 ft 260 kts 166°
2026-05-07 22:16 -2.62983 -79.12131 29234 ft 274 kts 130°
2026-05-07 22:16 -2.63811 -79.10369 28908 ft 294 kts 93°
2026-05-07 22:17 -2.63334 -79.08395 29140 ft 294 kts 54°
2026-05-07 22:17 -2.61816 -79.07133 29468 ft 289 kts 19°
2026-05-07 22:17 -2.59798 -79.06934 29322 ft 300 kts 343°
2026-05-07 22:17 -2.57958 -79.07903 28996 ft 310 kts 309°
2026-05-07 22:18 -2.57003 -79.09782 29125 ft 298 kts 269°
2026-05-07 22:18 -2.58654 -79.12964 29484 ft 267 kts 198°
2026-05-07 22:18 -2.60517 -79.13139 29115 ft 278 kts 160°
2026-05-07 22:19 -2.62089 -79.12050 29125 ft 283 kts 122°
2026-05-07 22:19 -2.62616 -79.10218 29426 ft 280 kts 84°
2026-05-07 22:19 -2.61946 -79.08407 29487 ft 288 kts 50°
2026-05-07 22:19 -2.60261 -79.07257 29279 ft 303 kts 13°
2026-05-07 22:20 -2.58165 -79.07283 29190 ft 309 kts 336°
2026-05-07 22:20 -2.56438 -79.08507 29257 ft 303 kts 299°
2026-05-07 22:20 -2.55760 -79.10410 29344 ft 290 kts 262°
2026-05-07 22:20 -2.56308 -79.12261 29343 ft 277 kts 226°
2026-05-07 22:21 -2.57845 -79.13367 29208 ft 275 kts 188°
2026-05-07 22:21 -2.59694 -79.13256 29209 ft 274 kts 152°
2026-05-07 22:21 -2.61055 -79.11992 29390 ft 274 kts 115°
2026-05-07 22:21 -2.61342 -79.10108 29446 ft 283 kts 78°
2026-05-07 22:22 -2.60409 -79.08350 29339 ft 299 kts 41°
2026-05-07 22:22 -2.58565 -79.07409 29330 ft 306 kts 11°
2026-05-07 22:22 -2.56390 -79.06996 29002 ft 329 kts 13°
2026-05-07 22:22 -2.54113 -79.06547 28932 ft 341 kts 13°